metlocid,date_time,avg_lwradin,std_lwradin,min_lwradin,max_lwradin,n_lwradin,avg_swradin,std_swradin,min_swradin,max_swradin,n_swradin,avg_swradout,std_swradout,min_swradout,max_swradout,n_swradout,n_comments
HODM,11/1/93,233.1888898,32.91370335,159.9,287.5,36,185.9646343,169.3523576,0,535.3,82,112.8146343,110.9053787,0,455,82,82
HODM,12/1/93,204.3506482,37.4395605,147,300.7,1388,253.0585012,215.662652,0,902,1388,176.145101,170.3225227,0,644.6,1388,1388
HODM,1/1/94,199.7822534,23.2066379,163.2,287.1,710,271.8230989,214.0307038,0,639.3,710,165.6364789,149.7798712,0,508.3,710,710
HODM,2/1/94,190.7491076,43.96927195,131.2,295.2,224,125.65625,135.7293318,0,456.8,224,122.7058034,136.3240076,0,475.5,224,224
HODM,3/1/94,155.4895164,32.74578146,121.3,249,248,46.58951598,76.32457135,0,410.9,248,50.5362905,81.15122258,0,339.6,248,248
HODM,4/1/94,174.7433332,33.58569701,121.2,252,240,1.09875,5.721094204,0,40.1,240,2.242916664,10.86145312,0,109.4,240,240
HODM,5/1/94,153.3814512,32.2688789,112.1,224.5,248,0,0,0,0,248,0,0,0,0,248,248
HODM,6/1/94,155.3662498,32.73915782,115.9,226.7,240,0,0,0,0,240,0,0,0,0,240,240
HODM,7/1/94,153.9713708,34.80036334,115.9,254,248,0,0,0,0,248,0,0,0,0,248,248
HODM,8/1/94,140.9354838,28.64729306,109.3,220.7,248,0,0,0,0,248,0.052822582,0.831850856,0,13.1,248,248
HODM,9/1/94,137.7283334,24.60861855,103.8,212.7,240,23.07500008,46.86361295,0,213.6,240,28.23124997,54.85654598,0,230.4,240,240
HODM,10/1/94,180.6612903,39.50629462,111.4,277.7,248,87.83548387,112.9899693,0,518,248,83.50685451,109.1775536,0,448.9,248,248
HODM,11/1/94,190.4401933,30.67300821,146.8,286.4,724,272.2123953,210.9015377,0,788,718,228.1156078,191.7870828,0,810,724,179
HODM,12/1/94,214.8688927,38.6909131,149.4,285.9,2231,288.8674368,199.8986816,33.4,848,2208,235.5532431,175.484824,27.9,840,2220,0
HODM,1/1/95,219.4083282,34.59739028,161.8,302.6,1621,265.2300765,198.5977615,22.7,806,2221,225.4634367,178.2583137,20,688.3,2229,4
HODM,2/1/95,,,,,0,167.2386408,176.520236,0,652.2,2016,142.2912699,152.8169847,0,530.4,2016,0
HODM,3/1/95,,,,,0,63.43669361,85.48496607,0,379.6,2232,71.51662196,100.3883976,0,434.4,2232,0
HODM,4/1/95,,,,,0,7.907407388,22.11780299,0,165.4,2160,11.11018519,32.4911747,0,193.3,2160,0
HODM,5/1/95,,,,,0,0.007750896,0.059716609,0,0.9,2232,0.02374552,0.106325043,0,1.6,2232,0
HODM,6/1/95,,,,,0,0.000277778,0.009620722,0,0.4,2160,0.011527778,0.069013289,0,1.1,2160,0
HODM,7/1/95,,,,,0,0.001792115,0.026551638,0,0.7,2232,0.009498208,0.061428673,0,1,2232,0
HODM,8/1/95,,,,,0,1.287544805,5.766266703,0,96.8,2232,1.83821684,8.677660787,0,94.1,2232,0
HODM,9/1/95,,,,,0,32.98953705,56.22647212,0,338.1,2160,33.61583332,59.67659861,0,303.8,2160,0
HODM,10/1/95,,,,,0,131.900896,144.1356892,0,566,2232,123.9658601,140.571787,0,539.1,2232,0
HODM,11/1/95,,,,,0,240.9857079,196.7494181,9.3,767.5,2225,198.5386061,169.1706474,8,673.3,2238,2
HODM,12/1/95,,,,,0,284.9841066,196.2786242,26,813.9,2932,217.6016184,163.1443939,21.4,808.4,2966,0
HODM,1/1/96,,,,,0,240.1450896,180.1392468,12.8,792.9,2963,202.4969736,162.3223427,10.8,775.1,2974,1
HODM,2/1/96,,,,,0,174.0549569,169.2107748,0,590.1,2784,147.2436061,148.496652,0,489.5,2784,80
HODM,3/1/96,,,,,0,67.70715698,87.30663963,0,345.2,1523,60.09734462,87.74013059,0,363.5,2975,1911
HODM,4/1/96,,,,,0,,,,,0,6.953750009,23.46156129,0,210.8,2880,2880
HODM,5/1/96,,,,,0,,,,,0,0.030913979,0.116237824,0,1.5,2976,2976
HODM,6/1/96,,,,,0,,,,,0,0.022743056,0.097271442,0,1.4,2880,2880
HODM,7/1/96,,,,,0,,,,,0,0.013373656,0.068618367,0,1,2976,2976
HODM,8/1/96,,,,,0,,,,,0,1.475823805,6.675167738,0,79.2,2974,2976
HODM,9/1/96,,,,,0,,,,,0,40.14434032,67.6590056,0,272.3,2880,2880
HODM,10/1/96,,,,,0,,,,,0,116.9506721,133.2357793,0,511.4,2976,2976
HODM,11/1/96,,,,,0,264.7232381,198.5800093,20.7,732.2,1575,190.7604723,163.875927,5.7,594.7,2879,1304
HODM,12/1/96,,,,,0,286.2783518,204.2582179,20,849.7,2961,234.8433491,175.9957199,23.6,674.4,2962,25
HODM,1/1/97,,,,,0,231.3582516,186.9944151,15.7,779.4,2963,202.4991254,166.7291521,13.3,657.7,2973,12
HODM,2/1/97,,,,,0,166.4496653,170.9256197,0,675.7,2688,161.4875371,165.822658,0,618,2688,82
HODM,3/1/97,,,,,0,69.57268145,99.14130248,0,390.8,2976,76.19983204,109.8211976,0,405,2976,1151
HODM,4/1/97,,,,,0,6.689861101,21.29496058,0,182.4,2880,8.342361109,27.68859854,0,191.3,2880,2070
HODM,5/1/97,,,,,0,0.000941176,0.021205789,0,0.7,2975,0.019186828,0.094334346,0,1.5,2976,2966
HODM,6/1/97,,,,,0,0.000208333,0.00645273,0,0.3,2880,0.026805556,0.099618257,0,1.5,2880,2875
HODM,7/1/97,,,,,0,0.000302521,0.007554504,0,0.2,2975,0.016134454,0.087722331,0,1.5,2975,2971
HODM,8/1/97,,,,,0,1.189616936,4.626294198,0,34.5,2976,1.399630378,5.458841871,0,59.6,2976,2575
HODM,9/1/97,,,,,0,33.35105937,61.35754755,0,401.6,2879,33.81962489,63.12274167,0,326.6,2879,1479
HODM,10/1/97,,,,,0,112.9838373,134.0720054,0,626,2976,87.93323247,106.5413458,0,454.5,2976,418
HODM,11/1/97,,,,,0,200.6644125,178.2459723,6.9,698.06,2876,122.281676,112.8986036,3.4,561.16,2876,0
HODM,12/1/97,,,,,0,236.6248535,189.365196,20.31,855.46,2907,213.288796,167.9286049,17.45,719.55,2949,71
HODM,1/1/98,,,,,0,235.8823629,197.972302,14.4,860.11,2941,217.4087459,175.2604562,15.9,709.49,2958,44
HODM,2/1/98,,,,,0,140.6623884,157.1034961,0,786.8,2688,144.0291774,147.4732292,0,645.4,2687,1
HODM,3/1/98,,,,,0,72.92933462,106.8078816,0,468.7,2976,77.17866252,109.6883594,0,463.6,2976,0
HODM,4/1/98,,,,,0,9.449878448,29.74651707,0,272.1,2879,11.5405002,33.75891287,0,274.6,2879,1
HODM,5/1/98,,,,,0,0.007056452,0.072440795,0,2.3,2976,0.029233871,0.126964105,0,2.4,2976,0
HODM,6/1/98,,,,,0,0.000104167,0.004166088,0,0.2,2880,0.015625,0.076564101,0,1.2,2880,0
HODM,7/1/98,,,,,0,0.001983193,0.027556259,0,0.7,2975,0.030060525,0.116069428,0,1.4,2974,2
HODM,8/1/98,,,,,0,1.272244624,5.46382226,0,62.5,2976,1.321176472,5.637761363,0,72.8,2975,1
HODM,9/1/98,,,,,0,38.45965273,69.0980225,0,371.7,2880,35.01725696,62.82540378,0,289.4,2880,0
HODM,10/1/98,,,,,0,133.037164,151.8162025,0,623,2976,104.9089717,118.3361227,0,422.1,2976,0
HODM,11/1/98,,,,,0,257.9886281,220.141874,10.8,868.2,2858,183.717263,157.696856,9.7,620.5,2879,23
HODM,12/1/98,,,,,0,314.4959686,230.4264497,26.9,809.3,2927,204.5474285,148.4475381,23,615.9,2975,50
HODM,1/1/99,,,,,0,224.7704989,184.1379104,12.9,796,2966,162.4546889,137.7391953,8.5,597,2975,10
HODM,2/1/99,,,,,0,164.8656249,166.5707586,0,728.8,2688,115.5154019,117.4799186,0,529,2688,456
HODM,3/1/99,,,,,0,67.55782928,92.9597962,0,405.8,2976,66.97956984,95.82908944,0,394.8,2976,2154
HODM,4/1/99,,,,,0,5.949930563,15.73401969,0,148.7,2880,6.685555559,19.02583592,0,160.7,2880,2553
HODM,5/1/99,,,,,0,0.000168011,0.006078368,0,0.3,2976,0.017977151,0.091059539,0,1.1,2976,2976
HODM,6/1/99,,,,,0,0.0024314,0.037757595,0,1.1,2879,0.019485933,0.091540821,0,1.5,2879,2876
HODM,7/1/99,,,,,0,0.000436828,0.010198569,0,0.3,2976,0.009442204,0.054525221,0,1,2976,2975
HODM,8/1/99,,,,,0,1.195900538,4.728044353,0,50.2,2976,1.86596102,7.934778685,0,91.5,2976,2934
HODM,9/1/99,,,,,0,24.71472221,43.56055745,0,259.1,2880,28.75722218,51.19024829,0,308,2880,2332
HODM,10/1/99,,,,,0,135.1985215,151.0337144,0,551.9,2976,109.1899866,122.5590913,0,401.5,2976,1106
HODM,11/1/99,,,,,0,223.3464931,186.2133547,2.5,737.9,2880,164.0718651,142.8212799,2,656.1,2879,228
HODM,12/1/99,,,,,0,297.1670715,213.4059148,21.2,896.2,2964,202.3609648,155.710112,14.4,663.6,2964,82
HODM,1/1/00,,,,,0,268.1355871,204.2553193,16.8,864.5,2973,169.498488,136.4672369,11,567.6,2976,62
HODM,2/1/00,,,,,0,169.8664152,174.9912602,0,757.5,2784,122.0809627,126.116318,0,480.9,2784,400
HODM,3/1/00,,,,,0,63.37540323,90.38505607,0,501.7,2976,52.47963711,75.99594242,0,322.1,2976,1681
HODM,4/1/00,,,,,0,5.437569464,16.61404688,0,257.5,2880,5.638784732,16.85550822,0,201,2880,2514
HODM,5/1/00,,,,,0,0.00349508,0.037910464,0,1.1,2947,0.020291823,0.089135833,0,1.4,2947,2965
HODM,6/1/00,,,,,0,0.001180556,0.027868508,0,0.9,2880,0.014131945,0.078839336,0,1.6,2880,2880
HODM,7/1/00,,,,,0,0.00023761,0.007132833,0,0.3,2946,0.023710991,0.100376966,0,1.6,2948,2976
HODM,8/1/00,,,,,0,1.418398919,5.853416992,0,75.7,2973,1.809475807,7.606866708,0,78.7,2976,2868
HODM,9/1/00,,,,,0,36.3742182,63.00917144,0,270.5,2878,34.26864584,59.87478675,0,261.2,2880,2167
HODM,10/1/00,,,,,0,137.6417002,154.159705,0,596.5,2976,102.4259745,115.8009235,0,416.7,2976,863
HODM,11/1/00,,,,,0,205.5737665,179.2473348,9.3,732.4,2878,156.797151,141.1276528,7.3,608.9,2878,438
HODM,12/1/00,,,,,0,297.210311,216.8969046,28.3,928.3,2958,240.5581318,179.8089358,24.3,810.7,2976,435
HODM,1/1/01,,,,,0,251.8879712,208.3422349,19.2,862.1,2968,217.2682688,177.9609981,18,779.1,2975,900
HODM,2/1/01,,,,,0,171.6585192,171.3174356,0,676.8,2688,133.5865327,136.0006759,0,526.9,2688,408
HODM,3/1/01,,,,,0,72.40151208,105.4190756,0,511.4,2976,65.6216061,95.17589658,0,366.8,2976,2143
HODM,4/1/01,,,,,0,6.328759982,22.09779876,0,222.1,2879,7.501076405,24.60819862,0,203.2,2880,2681
HODM,5/1/01,,,,,0,0.001277311,0.018835877,0,0.5,2975,0.032090054,0.120259385,0,1.8,2976,2976
HODM,6/1/01,,,,,0,0.003506944,0.043686416,0,1,2880,0.025798612,0.101966023,0,1.4,2880,2878
HODM,7/1/01,,,,,0,0.001377688,0.032406823,0,1,2976,0.020497312,0.101069349,0,1.5,2976,2971
HODM,8/1/01,,,,,0,1.295362905,5.286755806,0,65.5,2976,1.738239241,7.088144354,0,89.7,2976,2938
HODM,9/1/01,,,,,0,37.70545139,64.12505836,0,343.1,2880,38.01635415,62.66292578,0,278.8,2880,2270
HODM,10/1/01,,,,,0,142.8658938,153.8752508,0,556.1,2976,111.3010417,121.169789,0,388.3,2976,904
HODM,11/1/01,,,,,0,255.4955446,205.1335007,11.1,779.5,2873,154.928467,128.2939876,9.7,511.1,2877,15
HODM,12/1/01,,,,,0,315.3564793,219.0938955,19,901.2,2971,180.4085013,130.8369358,12.9,570.2,2976,38
HODM,1/1/02,,,,,0,252.0525204,208.5536296,15.4,775.2,2976,135.7465726,113.2680617,8.2,577.4,2976,160
HODM,2/1/02,,,,,0,151.7106399,156.5255728,0,659.8,2688,90.43411454,102.021158,0.1,447.4,2688,368
HODM,3/1/02,,,,,0,65.3711261,93.05426302,0,460.7,2975,51.94492604,73.73267418,0,324.8,2976,2010
HODM,4/1/02,,,,,0,6.557708326,19.91545488,0,201.8,2880,8.47434028,26.35824463,0,183.2,2880,2746
HODM,5/1/02,,,,,0,0.002957983,0.037552787,0,1,2975,0.032291667,0.120121468,0,1.6,2976,2972
HODM,6/1/02,,,,,0,0.012638889,0.088521382,0,1.5,2880,0.030694445,0.113037895,0,1.4,2880,2852
HODM,7/1/02,,,,,0,3.36E-05,0.001833397,0,0.1,2975,0.012605042,0.069238609,0,1.4,2975,2976
HODM,8/1/02,,,,,0,1.024227149,4.287387122,0,58,2976,1.020060485,4.766989184,0,65.9,2976,2821
HODM,9/1/02,,,,,0,33.23972218,61.77430629,0,281.1,2880,37.20131944,67.2375049,0,266.5,2880,2581
HODM,10/1/02,,,,,0,130.9025539,139.6902723,0,546,2976,106.5701949,121.095636,0,462.2,2976,1722
HODM,11/1/02,,,,,0,222.5386786,192.1900787,5.7,804.9,2875,196.2120834,164.5985783,4.6,647.3,2880,1628
HODM,12/1/02,,,,,0,284.889458,206.544691,11.9,843.4,2969,210.6849462,153.344541,8,682.2,2976,998
HODM,1/1/03,,,,,0,216.510311,188.2212725,10.3,820.8,2958,153.9356857,138.9574242,8.4,584.1,2976,768
HODM,2/1/03,,,,,0,163.0599702,169.5443934,0,670.1,2688,125.0307664,135.6359108,0,537.9,2688,1220
HODM,3/1/03,,,,,0,61.90164662,90.62956267,0,424.7,2976,64.19848794,91.3887324,0,374.2,2976,2625
HODM,4/1/03,,,,,0,5.676527771,15.14429715,0,107.6,2880,8.577013875,25.42340934,0,208.7,2880,2777
HODM,5/1/03,,,,,0,0.003932773,0.047831196,0,1.2,2975,0.034005377,0.125475441,0,1.6,2976,2973
HODM,6/1/03,,,,,0,0.006601807,0.058585357,0,1.6,2878,0.032950991,0.114971495,0,1.7,2877,2856
HODM,7/1/03,,,,,0,0.001680108,0.028939807,0,1,2976,0.020900538,0.085050626,0,0.9,2976,2976
HODM,8/1/03,,,,,0,0.940557795,3.780184278,0,45.1,2976,1.507426076,7.164657095,0,95.3,2976,2938
HODM,9/1/03,,,,,0,29.96312498,53.95378257,0,296.5,2880,29.17781247,54.08154376,0,269.7,2880,2313
HODM,10/1/03,,,,,0,131.7733198,147.2676833,0,540.5,2976,98.02987225,114.689608,0,430.5,2976,1406
HODM,11/1/03,,,,,0,232.7932986,185.3074585,7.6,725.8,2880,157.0704513,132.6438862,6.7,573.7,2880,221
HODM,12/1/03,,,,,0,274.2563784,200.6502475,13.4,823.4,2971,228.2701076,162.5721208,19,700.5,2974,1735
HODM,1/1/04,,,,,0,265.7557499,210.3069959,19.6,849.4,2974,215.4865926,178.8624012,18.2,741.3,2976,887
HODM,2/1/04,,,,,0,167.9224855,170.2830603,0,650.5,2784,144.6171338,149.1711175,0,519.5,2784,594
HODM,3/1/04,,,,,0,67.37110213,93.03515784,0,430.7,2976,72.70836694,101.0890817,0,373.4,2976,2373
HODM,4/1/04,,,,,0,6.104340283,17.93447899,0,148.4,2880,8.365069434,25.41910942,0,187.1,2880,2692
HODM,5/1/04,,,,,0,0.000235215,0.011149637,0,0.6,2976,0.020194893,0.096451821,0,1.5,2976,2975
HODM,6/1/04,,,,,0,0.01330323,0.114392503,0,3.1,2879,0.046631945,0.151875311,0,2.3,2880,2837
HODM,7/1/04,,,,,0,0.001109617,0.024374712,0,0.7,2974,0.036314728,0.118486376,0,2,2974,2974
HODM,8/1/04,,,,,0,1.324899192,6.502862042,0,100.2,2976,1.203494622,5.900093221,0,83.1,2976,2739
HODM,9/1/04,,,,,0,39.32309025,70.08465627,0,357.2,2880,34.96802227,63.67528543,0,281.5,2877,1863
HODM,10/1/04,,,,,0,137.470531,148.5453275,0,595.8,2976,98.41431454,110.7224815,0,431,2976,669
HODM,11/1/04,,,,,0,239.699583,192.6084574,8.7,851.8,2878,147.5336804,123.9275098,4.8,563.1,2880,2
HODM,12/1/04,,,,,0,256.791602,197.2974039,19.4,810.1,2965,180.7843645,138.8011132,20.5,746.5,2974,242
HODM,1/1/05,,,,,0,228.4543406,185.8387589,13.9,756.7,2972,192.1616084,164.2837938,10.5,652.3,2972,316
HODM,2/1/05,,,,,0,158.6288318,164.1001697,0,634.9,2688,149.3644344,153.4738156,0,588.7,2688,1090
HODM,3/1/05,,,,,0,63.89899186,88.27085332,0,366.4,2976,69.69929438,98.77462495,0,393.4,2976,2348
HODM,4/1/05,,,,,0,6.244618048,19.92826485,0,216.9,2880,7.408854175,23.11793849,0,240,2880,2627
HODM,5/1/05,,,,,0,0.003393817,0.039644312,0,1.1,2976,0.10668683,0.187416701,0,1.7,2976,2960
HODM,6/1/05,,,,,0,0.010632384,0.077398277,0,1.3,2878,0.07874262,0.170433623,0,1.9,2879,2863
HODM,7/1/05,,,,,0,0.004603495,0.06093648,0,1.6,2976,0.071438173,0.131228515,0,1.3,2976,2962
HODM,8/1/05,,,,,0,1.319166108,5.72048468,0,79.3,2974,1.849865599,7.793696244,0,79.5,2976,2823
HODM,9/1/05,,,,,0,37.22593749,63.16348802,0,304.1,2880,40.97500003,67.47647393,0,251.1,2880,2428
HODM,10/1/05,,,,,0,138.8044048,151.8650232,0,490.4,2974,91.85245303,101.5733643,0,352.2,2976,679
HODM,11/1/05,,,,,0,247.5558681,199.7011924,9.5,735.1,2880,144.6038195,124.8329078,5.3,497.4,2880,0
HODM,12/1/05,,,,,0,278.2267094,196.6617464,24.1,857.2,2969,180.5928045,134.4625892,13.8,686.1,2974,80
HODM,1/1/06,,,,,0,251.6422466,201.0494342,11.4,877.6,2973,157.9753024,132.3772505,7.3,561.4,2976,37
HODM,2/1/06,,,,,0,163.4125745,173.3886448,0,762.1,2688,122.5831846,127.0248047,0,469.4,2688,685
HODM,3/1/06,,,,,0,67.34381728,100.0524617,0,481.1,2976,59.02846107,86.41489797,0,414.3,2976,1880
HODM,4/1/06,,,,,0,7.833229169,22.31702093,0,191.7,2880,10.48305556,29.31602204,0,201.9,2880,2714
HODM,5/1/06,,,,,0,0.008406187,0.090165308,0,2.6,2974,0.104168069,0.161207947,0,1.8,2975,2937
HODM,6/1/06,,,,,0,0.002534722,0.032980341,0,1.2,2880,0.055243056,0.135373912,0,3,2880,2869
HODM,7/1/06,,,,,0,0.000705645,0.020972316,0,0.9,2976,0.064616937,0.11697039,0,1.2,2976,2974
HODM,8/1/06,,,,,0,1.070564515,4.025289862,0,47.8,2976,1.13699597,3.964465566,0,55,2976,2784
HODM,9/1/06,,,,,0,29.59798612,52.59172993,0,373.9,2880,31.28565973,57.6384562,0,376.3,2880,2126
HODM,10/1/06,,,,,0,145.2429771,159.3019727,0,656.4,2976,123.5545025,137.5782166,0,498.1,2976,1071
HODM,11/1/06,,,,,0,255.1461457,202.8601657,10.1,724.8,2880,205.151007,169.9919879,8.3,592.1,2880,198
HODM,12/1/06,,,,,0,304.0267541,213.2353239,31.3,913.5,2964,232.8816869,172.646658,28.6,753,2976,79
HODM,1/1/07,,,,,0,271.5746219,208.8540821,17.8,798.4,2975,169.5961357,137.1533041,13.8,637.8,2976,1
HODM,2/1/07,,,,,0,160.9131324,162.6343355,0,701.9,2688,113.0996652,114.6273805,0,423.4,2688,397
HODM,3/1/07,,,,,0,74.86428089,109.4591767,0,459.8,2976,61.35887106,89.79240014,0,427.3,2976,1668
HODM,4/1/07,,,,,0,7.238263897,21.05734413,0,169.7,2880,7.932187507,23.51794043,0,177,2880,2534
HODM,5/1/07,,,,,0,0.00346568,0.058346749,0,1.8,2972,0.084375001,0.163289133,0,2.5,2976,2966
HODM,6/1/07,,,,,0,0.001772064,0.052537165,0,2.1,2878,0.130069447,0.183058031,0,2,2880,2879
HODM,7/1/07,,,,,0,0.00097479,0.020313391,0,0.7,2975,0.101814518,0.164873472,0,1.5,2976,2972
HODM,8/1/07,,,,,0,1.219986544,5.004465633,0,58.4,2972,1.120194895,4.416797429,0,57.7,2976,2724
HODM,9/1/07,,,,,0,34.37534717,60.39373251,0,274.9,2880,25.68166668,45.19465381,0,196.1,2880,1763
HODM,10/1/07,,,,,0,94.59364479,121.0726586,0,523.9,2974,100.2221102,119.2888462,0,474.6,2976,1600
HODM,11/1/07,,,,,0,243.6612019,196.4633611,9.5,777.5,2879,196.5720138,163.1883042,10,647.2,2880,122
HODM,12/1/07,,,,,0,299.4229063,217.416114,31.1,863.4,2973,215.5987566,167.3393026,18.9,694.4,2976,25
HODM,1/1/08,,,,,0,251.1891892,196.5033385,22.2,896.1,2960,195.676522,161.432388,19.6,768.8,2973,75
HODM,2/1/08,,,,,0,154.0963363,154.7267188,0,782.9,2784,130.6904095,137.978428,0,600.7,2784,408
HODM,3/1/08,,,,,0,64.50359546,88.12962499,0,425,2976,61.83581998,85.99567021,0,410.2,2976,1927
HODM,4/1/08,,,,,0,6.369687495,18.9590711,0,125,2880,7.998263901,25.66113719,0,163.1,2880,2581
HODM,5/1/08,,,,,0,0.000403226,0.012428162,0,0.5,2976,0.021169355,0.090760246,0,1.5,2976,2976
HODM,6/1/08,,,,,0,0.004895833,0.056409192,0,1.5,2880,0.023125,0.097698197,0,2.1,2880,2869
HODM,7/1/08,,,,,0,0.001780914,0.031008598,0,0.8,2976,0.020833334,0.082986956,0,0.9,2976,2973
HODM,8/1/08,,,,,0,1.654942842,7.096896601,0,79,2974,2.30023537,9.772267101,0,92.7,2974,2912
HODM,9/1/08,,,,,0,34.65756948,57.55580934,0,275.1,2880,31.35465278,53.47677697,0,231.2,2880,1981
HODM,10/1/08,,,,,0,131.0019154,143.5427408,0,545.2,2976,101.4179772,114.4594859,0,425,2976,656
HODM,11/1/08,,,,,0,252.3907986,206.251516,4.6,693.2,2880,172.3366667,145.0788656,3.6,466.6,2880,10
HODM,12/1/08,,,,,0,338.1726656,232.684609,19.6,945.7,2956,195.0021168,141.6550399,15.6,604.8,2976,26
HODM,1/1/09,,,,,0,235.8687589,183.4470583,18.7,840,1402,148.9426228,111.6880582,15.7,511.9,1403,61
HODM,10/1/09,,,,,0,174.8483075,164.860883,0,578.9,1093,123.1080513,120.8847158,0,430.3,1093,53
HODM,11/1/09,,,,,0,234.9499652,199.9458645,10.3,849,2880,171.1830902,149.3355376,6.4,707.9,2880,187
HODM,12/1/09,,,,,0,285.3856069,209.5180424,22,831.6,2925,190.8129368,147.9889696,15.7,621.9,2976,51
HODM,1/1/10,,,,,0,242.1711632,192.591616,18.2,853.9,2958,185.1379368,155.6256357,13.3,735.1,2976,89
HODM,2/1/10,,,,,0,152.2462797,159.3417552,0,683.6,2688,121.3954242,129.9356521,0,510.2,2688,549
HODM,3/1/10,,,,,0,63.15816532,95.81270229,0,500.7,2976,58.77500003,86.24957818,0,336.1,2976,1876
HODM,4/1/10,,,,,0,6.389236107,19.17894097,0,148.3,2880,7.827743047,26.00012934,0,182.7,2880,2574
HODM,5/1/10,,,,,0,0.001041667,0.019803835,0,0.7,2976,0.022916667,0.094552611,0,1.1,2976,2976
HODM,6/1/10,,,,,0,0.001388889,0.028959282,0,1.1,2880,0.010902778,0.064392997,0,1.4,2880,2878
HODM,7/1/10,,,,,0,0.000571237,0.015654128,0,0.7,2976,0.016297043,0.07647616,0,1.1,2976,2975
HODM,8/1/10,,,,,0,1.022494955,4.730098607,0,54.5,2974,2.5477632,12.25635352,0,133.4,2973,2936
HODM,9/1/10,,,,,0,37.70312499,70.60706004,0,461.1,2880,38.20586807,70.23599592,0,322.2,2880,2165
HODM,10/1/10,,,,,0,136.7103832,154.0863643,0,804.6,2976,108.2404906,123.4672696,0,418.6,2976,818
HODM,11/1/10,,,,,0,263.2320694,217.1475196,11.3,870.8,2875,147.822257,125.5807404,6.7,481.4,2880,5
HODM,12/1/10,,,,,0,305.989098,216.1411729,26.2,810.7,2972,166.0662634,124.64713,13.7,542.2,2976,4
HODM,1/1/11,,,,,0,201.8355001,174.2929849,13.8,818.9,2969,159.1543069,135.294404,11.8,602.4,2972,510
HODM,2/1/11,,,,,0,143.3182293,154.9600119,0,671.8,2688,136.6393973,143.6066953,0,595.1,2688,1334
HODM,3/1/11,,,,,0,64.09983208,91.26810777,0,462.7,2976,69.50477154,98.9574026,0,438.8,2976,2773
HODM,4/1/11,,,,,0,7.165972231,23.22427072,0,280.7,2880,9.884409726,29.9346669,0,283.3,2880,2835
HODM,5/1/11,,,,,0,0.000638441,0.010827711,0,0.3,2976,0.236895165,0.242111797,0,2.1,2976,2975
HODM,6/1/11,,,,,0,0.000729167,0.011616017,0,0.3,2880,0.183923614,0.216788958,0,1.5,2880,2878
HODM,7/1/11,,,,,0,0.002822581,0.053125159,0,1.7,2976,0.161949582,0.231128845,0,2.8,2975,2969
HODM,8/1/11,,,,,0,0.985282259,3.613688981,0,39,2976,1.314012099,3.432290834,0,46.3,2976,2850
HODM,9/1/11,,,,,0,36.41524831,65.08779122,0,315.3,2879,38.62997565,68.36740584,0,300.7,2879,2453
HODM,10/1/11,,,,,0,131.346622,150.6181782,0,546.9,2975,114.9213373,129.5187807,0,485.1,2976,1550
HODM,11/1/11,,,,,0,232.1183335,197.9701699,5.6,836.9,2880,188.9187154,162.6381462,5.7,712.2,2880,470
HODM,12/1/11,,,,,0,282.6069366,215.5066254,26.9,794.2,2941,239.9246452,183.042334,24.8,818.8,2958,927
HODM,1/1/12,,,,,0,247.8626525,195.5735374,17.9,865,2948,203.6062899,161.3821153,14.8,684.4,2973,2975
HODM,2/1/12,,,,,0,153.5390086,159.9853361,0,637,2784,135.8763649,140.4508133,0,537,2784,2784
HODM,3/1/12,,,,,0,60.79247311,90.14879,0,394.3,2976,65.77731861,98.07583427,0,389,2976,2976
HODM,4/1/12,,,,,0,7.683993059,23.2186289,0,210.2,2880,11.08232639,32.23066383,0,218.1,2880,2880
HODM,5/1/12,,,,,0,0.001948925,0.021760316,0,0.4,2976,0.090221775,0.196083892,0,2.3,2976,2976
HODM,6/1/12,,,,,0,0.002395833,0.040376265,0,1.1,2880,0.10795139,0.220618282,0,2.1,2880,2880
HODM,7/1/12,,,,,0,0.002721774,0.032008159,0,0.6,2976,0.076881722,0.173708405,0,2.4,2976,2976
HODM,8/1/12,,,,,0,1.009139787,4.594406971,0,67.4,2976,1.42825941,6.46154841,0,100.1,2976,2976
HODM,9/1/12,,,,,0,37.91954859,64.78214351,0,301.2,2880,45.92090276,80.19106955,0,325.9,2880,2880
HODM,10/1/12,,,,,0,122.8374999,135.1889464,0,502.5,2976,133.1378696,149.6767379,0,528.8,2976,2976
HODM,11/1/12,,,,,0,237.4611459,193.9487115,10.3,717.4,2880,236.0535416,201.9209638,12.4,785.9,2880,2880
HODM,12/1/12,,,,,0,229.4184971,166.3169069,26,752.6,2968,210.8159879,161.3128213,21.8,793.1,2971,2976
HODM,1/1/13,,,,,0,228.396948,186.6729709,18.4,842.5,2949,224.0212979,187.2645879,17.8,821.1,2958,2976
HODM,2/1/13,,,,,0,148.1059152,146.5600829,0,631.2,2688,161.2649181,167.1102568,0,669.8,2688,2688
HODM,3/1/13,,,,,0,58.47523527,84.3926421,0,423.8,2976,72.7454972,107.7147648,0,497.9,2976,2976
HODM,4/1/13,,,,,0,7.48447917,22.59309265,0,168.3,2880,11.874375,35.91965556,0,224,2880,2880
HODM,5/1/13,,,,,0,0.005745968,0.050582304,0,1.2,2976,0.085248657,0.188012532,0,1.7,2976,2976
HODM,6/1/13,,,,,0,0.005520833,0.045887561,0,0.7,2880,0.067812501,0.184635817,0,2.8,2880,2880
HODM,7/1/13,,,,,0,0.002788979,0.032523303,0,0.7,2976,0.076948926,0.169724144,0,1.6,2976,2976
HODM,8/1/13,,,,,0,1.085752691,4.047403821,0,41.9,2976,1.289885753,4.04218285,0,41.8,2976,2976
HODM,9/1/13,,,,,0,36.23538195,61.5341771,0,260.5,2880,46.39690976,81.24004371,0,334.2,2880,2880
HODM,10/1/13,,,,,0,123.388004,140.1031725,0,607.8,2976,137.4924731,158.8599597,0,561.4,2976,2976
HODM,11/1/13,,,,,0,224.6125696,180.5369595,7.4,645.9,2880,197.6383334,167.063825,8.9,602,2880,2880
HODM,12/1/13,,,,,0,271.8463712,195.0430606,24.5,786.5,2935,200.6426987,151.8246208,19.9,644.6,2972,2976
HODM,1/1/14,,,,,0,236.0802429,198.3726035,14.8,843.64,2964,138.416299,115.8020898,12.11,463.09,2964,2964
HODM,2/1/14,,,,,0,135.5874777,149.368445,0,719.24,2688,87.94776787,97.48728295,0,515.31,2688,2688
HODM,3/1/14,,,,,0,51.74818209,82.98235838,0,393.59,2976,58.61467066,83.67652385,0,343.95,2976,2976
HODM,4/1/14,,,,,0,6.801028486,18.97871154,0,133.75,2878,8.173554538,23.0367821,0,175.31,2878,2878
HODM,5/1/14,,,,,0,0.004082661,0.045206884,0,1.4,2976,0.120010081,0.231449143,0,2.68,2976,2976
HODM,6/1/14,,,,,0,0.007430556,0.056053446,0,1.03,2880,0.128649305,0.210107107,0,1.91,2880,2880
HODM,7/1/14,,,,,0,0.000265457,0.007627687,0,0.31,2976,0.130339382,0.210299472,0,1.65,2976,2976
HODM,8/1/14,,,,,0,0.817805779,3.337767306,0,40.12,2976,1.068840726,4.378260607,0,67.06,2976,2976
HODM,9/1/14,,,,,0,32.4611979,58.92156996,0,291.79,2880,34.22832649,64.76285596,0,319.01,2880,2880
HODM,10/1/14,,,,,0,97.41485882,115.9684189,0,628.8,2976,100.1126043,124.1597272,0,634.44,2976,2976